Location: Carbonear
(47.7333°N, 53.2500°W)
Time: 07:33:21
(UTC+00:00)

AO-27 - Visible Passes

Search period start: 07 December 2022 00:00
Search period end: 17 December 2022 00:00
Orbit: 786 x 796 km, 98.9° (Epoch: 06 December)

Date Brightness Start Highest point End Pass type
(mag) Time Alt. Az. Time Alt. Az. Time Alt. Az.
07 Dec 9.5 21:18:52 14° NNE 21:18:52 14° NNE 21:20:07 10° NNE visible
07 Dec 9.7 22:59:37 18° NNW 22:59:37 18° NNW 23:00:56 10° NNW visible
08 Dec 9.5 22:30:02 20° N 22:30:02 20° N 22:31:35 10° N visible
09 Dec 10.5 10:32:16 10° NE 10:35:06 14° E 10:37:54 10° ESE visible
09 Dec 9.4 22:00:27 18° NNE 22:00:27 18° NNE 22:02:01 10° N visible
09 Dec 10.3 23:41:11 12° NNW 23:41:11 12° NNW 23:41:40 10° NNW visible
10 Dec 9.4 21:30:51 15° NNE 21:30:51 15° NNE 21:32:11 10° NNE visible
10 Dec 9.9 23:11:36 16° NNW 23:11:36 16° NNW 23:12:38 10° NNW visible
11 Dec 9.6 21:01:15 11° NNE 21:01:15 11° NNE 21:01:45 10° NNE visible
11 Dec 9.6 22:41:59 19° N 22:41:59 19° N 22:43:22 10° N visible
12 Dec 9.4 22:12:23 19° N 22:12:23 19° N 22:13:53 10° N visible
12 Dec 10.5 23:53:07 11° NNW 23:53:07 11° NNW 23:53:14 10° NNW visible
13 Dec 9.4 21:42:47 16° NNE 21:42:47 16° NNE 21:44:11 10° N visible
13 Dec 10.1 23:23:31 14° NNW 23:23:31 14° NNW 23:24:19 10° NNW visible
14 Dec 9.5 21:13:09 12° NNE 21:13:09 12° NNE 21:14:04 10° NNE visible
14 Dec 9.7 22:53:54 18° NNW 22:53:54 18° NNW 22:55:07 10° NNW visible
15 Dec 9.5 22:24:17 19° N 22:24:17 19° N 22:25:43 10° N visible
16 Dec 10.7 10:27:00 10° ENE 10:29:11 13° E 10:31:22 10° ESE visible
16 Dec 9.4 21:54:39 17° NNE 21:54:39 17° NNE 21:56:07 10° N visible
16 Dec 10.2 23:35:23 13° NNW 23:35:23 13° NNW 23:35:57 10° NNW visible
